STARLINK-5108, 53992

Orbit data source: Space-Track

STARLINK-5108, 53992 is a payload satellite owned by SpaceX/Seattle (US) in LEO that was launched on Wed, 05 Oct 2022 UTC via an FALCON 9 launch vehicle from the Air Force Western Test Range (AFWTR). Payload-class satellites include a variety of spacecraft equipped with specific instruments for various scientific and technological missions. These include communications satellites like Starlink; space stations such as the ISS; scientific satellites like the Hubble; Earth observation satellites from companies like Planet Labs, Umbra, and HawkEye 360; GPS; miniature CubeSats for education and research; and military/defense satellites.

Loading next visibility...
Identifier
53992, 2022-125AE
Orbit
LEO
Country
Flag of USUS
Related business
Manufacturer
SpaceX/Seattle
Mission
Operational Commercial Communications
Bus & Motor
STARLINK, Unknown motor
Mass
305 kg wet, ~290 kg dry
Launch date (UTC)
2022-10-05 (4 years ago)
Launch vehicle
FALCON 9
Launch site
Air Force Western Test Range (AFWTR)
Object type
Payload
Rocket body
Debris
Shape & HBR
Box + 1 Pan, 10.1 m
Radar Cross Section
13.562 m², Large (>1 m²)

Expand to show TLE details & history
Last TLE update: 3 days ago

TLE from 3 days ago
0 STARLINK-5108
1 53992U 22125AE  26170.57397660  .00000628  00000-0  57559-4 0  9990
2 53992  53.1603 116.6335 0001406  90.5096 269.6056 15.08835424204834
Epoch: 2026-06-19T13:46Z
TLE epoch observation values (Epoch: 2026-06-19T13:46:31.578Z)
Latitude
-0.00005°
Longitude
2.20088°
Altitude
540.656 km
Speed
7.593 km/s
True Right ascension
07h 46m 32s
True Declination
0° 00' 00"
Sunlit
Object was in daylight at epoch
Visualization orbit readout
Latitude
Unknown
Longitude
Unknown
Altitude
Unknown
Speed
Unknown
Apparent Right ascension
Unknown
Apparent Declination
Unknown
Sunlit
N/A
Visualization observer readout
Local Sidereal Time
21:23:38
Azimuth
Unknown
Elevation
Unknown
Doppler factor
Unknown
Orbital elements
Apogee altitude
540.984 km
Perigee altitude
539.039 km
Semi-major axis
6,918.148 km
Eccentricity
0.00014
Inclination
53.1603°
RAAN
116.6335°
Arg. of periapsis
90.5096°
True anomaly
269.58949°
Mean anomaly
269.6056°
Eccentric anomaly
269.59754°
Mean motion
3.77188 °/min
Orbital period
95.44 mins
BSTAR
0.000057559
Loading maneuver chart data...
Computing Atmospheric mass density...
Loading historical data...
Loading historical data...
Loading historical data...
Loading historical data...
Loading historical data...
Loading historical data...
Loading historical data...

Documentation

Showing up to 5 results
|